Flag for U.S.A. Weather past 2 weeks in Kansas City, Missouri, U.S.A.

Now
62 °F

Light rain. Overcast.


Feels Like: 62 °F
Forecast: 62 / 78 °F
Wind: No wind

Location: Kansas City Downtown Airport

Current Time: May 26, 2015 at 7:16:50 AM

Latest Report: May 26, 2015 at 5:54 AM


Visibility: 10 mi

Pressure: 29.77 "Hg

Humidity: 86%

Dew point: 58 °F

Location of Kansas CityLocation

Historic Weather in Kansas City — Graph

°F

Kansas City temperature yesterday

Maximum temperature yesterday: 81 °F (at 3:54 PM)
Minimum temperature yesterday: 62 °F (at 5:54 AM)
Average temperature yesterday: 71 °F

Past Weeks' High & Low Weather Summary

 TemperatureHumidityPressure
High83 °F (May 16, 3:54 PM)94% (May 15, 3:56 AM)30.34 "Hg (May 15, 3:56 AM)
Low46 °F (May 12, 5:54 AM)32% (May 12, 2:54 PM)29.65 "Hg (May 17, 2:54 AM)
Average64 °F69%30.04 "Hg
* Reported May 11 5:54 AM — May 26 5:54 AM, Kansas City, Weather by CustomWeather, © 2015

Note: Actual official high and low records may vary slightly from our data, if they occured in-between our weather recording intervals... More about our weather records

Advertising

Kansas City weather history for previous 24 hours

 ConditionsComfort  
Time TempWeatherWind HumidityBarometerVisibility
5:54 AM
Tue, May 26
62 °FLight rain. Overcast.No wind86%29.77 "Hg10 mi
4:54 AM62 °FLight rain. Low clouds.No wind93%29.75 "Hg8 mi
3:54 AM62 °FRain. Fog.9 mph90%29.75 "Hg5 mi
2:54 AM63 °FLight rain. Mostly cloudy.6 mph90%29.76 "Hg7 mi
2:04 AM63 °FMostly cloudy.No wind90%29.81 "Hg10 mi
1:54 AM63 °FLight rain. Overcast.3 mph90%29.79 "Hg10 mi
12:54 AM64 °FLight rain. Mostly cloudy.8 mph87%29.83 "Hg10 mi
12:03 AM64 °FThunderstorms. Mostly cloudy.8 mph78%29.84 "Hg2 mi
11:54 PM
Mon, May 25
67 °FThunderstorms. Overcast.10 mph71%29.81 "Hg6 mi
10:54 PM71 °FMostly cloudy.15 mph68%29.79 "Hg10 mi
9:54 PM74 °FPassing clouds.5 mph71%29.79 "Hg10 mi
8:54 PM76 °FSunny.No wind64%29.81 "Hg10 mi
7:54 PM78 °FSunny.9 mph62%29.80 "Hg10 mi
6:54 PM80 °FSunny.16 mph56%29.78 "Hg10 mi
5:54 PM81 °FPassing clouds.18 mph56%29.78 "Hg10 mi
4:54 PM81 °FPassing clouds.16 mph56%29.78 "Hg10 mi
3:54 PM81 °FLight rain. Scattered clouds.20 mph56%29.83 "Hg10 mi
2:54 PM79 °FPartly sunny.15 mph62%29.85 "Hg10 mi
1:54 PM77 °FOvercast.16 mph64%29.87 "Hg10 mi
12:54 PM77 °FPartly sunny.14 mph62%29.87 "Hg10 mi
11:54 AM76 °FPassing clouds.17 mph64%29.86 "Hg10 mi
10:54 AM73 °FSunny.7 mph66%29.86 "Hg10 mi
9:54 AM69 °FSunny.8 mph76%29.87 "Hg10 mi
8:54 AM64 °FRain. Mostly cloudy.10 mph84%29.87 "Hg8 mi
7:54 AM64 °FPartly sunny.9 mph84%29.96 "Hg10 mi
Weather by CustomWeather, © 2015

See weather overviewHow to use our weather pages